KG6LPP Weather Reports


time (UTC)temp
C
wind
direction
speed
KPH
gust
KPH
rain 1hr
cm
rain 24hr
cm
rain mn
cm
humidity
%
barometer
mb
20260506154521 9 266 0.0 0.0 0.00 0.15 0.08 58 1008.0
20260506153020 8 128 0.0 0.0 0.00 0.15 0.08 61 1008.1
20260506151519 7 309 0.0 0.0 0.00 0.15 0.08 66 1008.1
20260506144517 6 304 0.0 0.0 0.00 0.15 0.08 67 1008.3
20260506143016 6 296 0.0 0.0 0.00 0.15 0.08 68 1008.1
20260506141515 5 65 0.0 0.0 0.00 0.15 0.08 71 1007.9
20260506134532 5 57 0.0 0.0 0.00 0.15 0.08 74 1008.0
20260506133015 4 293 0.0 0.0 0.00 0.15 0.08 75 1008.0
20260506131514 3 292 0.0 0.0 0.00 0.15 0.08 77 1007.6
20260506124513 3 82 0.0 1.6 0.00 0.15 0.08 79 1006.7
20260506123009 3 90 0.0 0.0 0.00 0.15 0.08 83 1006.3
20260506121511 2 79 0.0 0.0 0.00 0.15 0.08 85 1006.5
20260506114515 1 79 0.0 0.0 0.00 0.15 0.08 85 1006.3
20260506113007 2 79 0.0 0.0 0.00 0.15 0.08 85 1006.2
20260506111502 2 79 0.0 0.0 0.00 0.15 0.08 85 1006.3
20260506104606 3 79 0.0 0.0 0.00 0.15 0.08 84 1005.9
20260506103105 3 79 0.0 0.0 0.00 0.15 0.08 84 1005.8
20260506101555 3 79 0.0 0.0 0.00 0.15 0.08 83 1005.7
20260506094552 3 79 0.0 0.0 0.00 0.15 0.08 81 1005.2
20260506093056 3 79 0.0 1.6 0.00 0.15 0.08 81 1005.0
20260506091550 4 74 0.0 0.0 0.00 0.15 0.08 83 1005.0
20260506084527 4 74 0.0 0.0 0.00 0.15 0.08 77 1004.9
20260506081506 6 74 0.0 0.0 0.00 0.15 0.08 70 1004.7
20260506071501 7 111 0.0 0.0 0.00 0.15 0.08 69 1004.5
20260506070126 7 74 0.0 0.0 0.00 0.15 0.08 68 1004.4
20260506061558 7 313 0.0 1.6 0.00 0.15 0.08 69 1004.2
20260506050104 6 80 0.0 0.0 0.03 0.15 0.08 79 1003.8
20260506044556 6 76 0.0 1.6 0.03 0.15 0.08 80 1003.4
20260506041557 6 325 0.0 0.0 0.05 0.15 0.08 85 1003.3
20260506040049 6 74 0.0 0.0 0.05 0.15 0.08 84 1003.0
20260506034548 7 132 0.0 1.6 0.03 0.13 0.05 79 1002.8
20260506031540 9 291 0.0 0.0 0.00 0.10 0.03 68 1001.7
20260506030037 10 290 0.0 0.0 0.00 0.10 0.03 66 1001.4
20260506024539 10 290 0.0 0.0 0.00 0.10 0.03 65 1000.8
20260506021533 10 340 0.0 0.0 0.00 0.10 0.03 65 1000.4
20260506020029 10 340 0.0 0.0 0.00 0.10 0.03 64 999.9
20260506014528 10 340 0.0 0.0 0.00 0.10 0.03 63 999.5
20260506011555 11 340 0.0 0.0 0.00 0.10 0.03 59 999.2
20260506010023 11 55 0.0 0.0 0.00 0.10 0.03 60 999.4
20260506004522 11 55 0.0 0.0 0.00 0.10 0.03 60 998.8
20260506001527 12 55 0.0 0.0 0.00 0.10 0.03 58 998.7
20260506000044 12 53 0.0 0.0 0.00 0.10 0.03 56 998.8
20260505234538 12 53 0.0 0.0 0.03 0.10 0.03 54 998.5
20260505231522 13 281 0.0 0.0 0.03 0.10 0.03 53 998.5
20260505230044 13 296 0.0 0.0 0.03 0.10 0.03 60 998.5
20260505224532 11 292 0.0 0.0 0.00 0.08 0.00 66 998.6
20260505221514 11 138 0.0 0.0 0.00 0.08 0.00 79 999.2
20260505220009 11 36 0.0 1.6 0.00 0.08 0.00 69 999.1
20260505214509 13 51 0.0 0.0 0.00 0.08 0.00 63 999.0
20260505211511 16 141 0.0 0.0 0.00 0.08 0.08 52 998.9
20260505210007 16 80 0.0 1.6 0.00 0.08 0.08 55 998.6
20260505204507 14 315 0.0 0.0 0.00 0.08 0.08 57 998.6
20260505201504 14 316 0.0 4.8 0.00 0.08 0.08 61 998.9
20260505200004 14 58 0.0 1.6 0.03 0.08 0.08 61 998.6
20260505194504 13 325 0.0 0.0 0.08 0.08 0.08 67 998.7
20260505191507 11 22 0.0 0.0 0.08 0.08 0.08 89 999.2
20260505190004 11 59 0.0 0.0 0.05 0.05 0.05 78 999.6
20260505184507 13 61 0.0 0.0 0.00 0.00 0.00 60 999.5
20260505181503 14 15 0.0 0.0 0.00 0.00 0.00 51 999.3
20260505180003 15 53 0.0 1.6 0.00 0.00 0.00 49 999.3
20260505174502 13 53 0.0 0.0 0.00 0.00 0.00 51 999.3
20260505171625 12 36 0.0 0.0 0.00 0.00 0.00 55 999.5
20260505170057 10 36 0.0 0.0 0.00 0.00 0.00 61 999.6
20260505164605 10 36 0.0 0.0 0.00 0.00 0.00 60 999.6
20260505163156 10 44 0.0 0.0 0.00 0.00 0.00 62 999.6
20260505161556 10 41 0.0 0.0 0.00 0.00 0.00 62 999.8